Regional Weather Roundup
Issued by NWS Northern Indiana

Home | Current Version | Previous Version | Graphics & Text | Print | Product List | Glossary On
Versions: 1 2 3 4 5 6 7 8 9 10 11 12 13 14 15 16 17 18 19 20 21 22 23 24 25 26 27 28 29 30 31 32 33 34 35 36 37 38 39 40 41 42 43 44 45 46 47 48 49 50
971
ASUS43 KIWX 221910
RWRIWX

KIWX WEATHER ROUNDUP
NATIONAL WEATHER SERVICE NORTHERN INDIANA
200 PM EST WED FEB 22 2017

NOTE: "FAIR" INDICATES FEW OR NO CLOUDS BELOW 12,000 FEET WITH NO
SIGNIFICANT WEATHER AND/OR OBSTRUCTIONS TO VISIBILITY.

* THESE STATIONS ARE NOT UNDER NWS QUALITY CONTROL. THEY ALSO MAY NOT
  REPORT WEATHER SUCH AS PRECIPITATION OR FOG.

INZ001>027-222000-
NORTHERN INDIANA

CITY           SKY/WX    TMP DP  RH WIND       PRES   REMARKS
GARY*          CLOUDY    61  54  77 S8        29.77S HAZE
VALPARAISO     CLOUDY    65  56  72 SW10      29.76F HAZE
MICHIGAN CITY* CLOUDY    61  54  77 SW12      29.75F
LAPORTE*       CLOUDY    59  54  84 SW8       29.76F
KNOX*          CLOUDY    59  37  44 S9        29.77F
SOUTH BEND     CLOUDY    59  54  83 S10       29.78F
ELKHART*       CLOUDY    57  54  88 S8        29.77F HAZE
GOSHEN         CLOUDY    63  53  70 S8        29.77F
MONTICELLO*    CLOUDY    63  54  73 SW8       29.77F
LOGANSPORT*    CLOUDY    59  54  82 SW10      29.80S
ROCHESTER*     CLOUDY    61  55  82 S8        29.79S HAZE
WARSAW*        CLOUDY    61  54  77 S5        29.77F
ANGOLA*        CLOUDY    61  55  82 S12       29.78F
FORT WAYNE     CLOUDY    62  53  72 SW9       29.79F
HUNTINGTON*    CLOUDY    61  54  76 SW10      29.78F
PERU/GRISSOM   CLOUDY    61  60  94 S12       29.75F
MARION*        CLOUDY    61  54  77 S10       29.80F

$$
INZ028>050-222000-
CENTRAL INDIANA

CITY           SKY/WX    TMP DP  RH WIND       PRES   REMARKS
LAFAYETTE      PTSUNNY   65  56  72 S10       29.77F
KOKOMO*        CLOUDY    60  55  83 S14       29.80F
MUNCIE*        CLOUDY    63  54  72 S14G20    29.80F
INDIANAPOLIS   PTSUNNY   64  55  72 S13       29.80F

$$
MIZ043>046-050>051-056>058-064>065-071>073-077>080-222000-
SOUTHWEST LOWER MICHIGAN

CITY           SKY/WX    TMP DP  RH WIND       PRES   REMARKS
BATTLE CREEK   CLOUDY    59  54  83 SW15      29.77F
BENTON HARBOR  PTSUNNY   63  53  70 S15       29.74F HAZE
COLDWATER*     CLOUDY    61  54  77 S7        29.77F
HILLSDALE*     CLOUDY    57  52  82 S9        29.77F
HOLLAND        MOSUNNY   58  53  84 SW10      29.73F HAZE
GRAND RAPIDS   PTSUNNY   62  53  72 SW12      29.73F
KALAMAZOO      CLOUDY    59  52  77 S13       29.76F HAZE
STURGIS*       CLOUDY    59  54  83 SW10      29.76F HAZE
THREE RIVERS*  CLOUDY    58  54  84 SW9       29.76F HAZE

$$
OHZ001>008-015>018-024>025-222000-
NORTHWEST OHIO

CITY           SKY/WX    TMP DP  RH WIND       PRES   REMARKS
WAUSEON*       CLOUDY    64  54  68 SW12G18   29.78F
DEFIANCE       CLOUDY    62  53  72 S12       29.79F
FINDLAY        CLOUDY    61  53  75 S13       29.81F
TOLEDO EXPRESS CLOUDY    62  54  74 S12       29.79F
TOLEDO METCALF CLOUDY    63  55  75 SW12      29.81F
LIMA           CLOUDY    59  56  89 SW10      29.82F

$$
AND FOR LAKE MICHIGAN COASTAL AND OPEN LAKE BUOY OBSERVATIONS

STATION/POSITION TEMP    WIND        PRES    VSBY  WAVE
                 AIR SEA DIR/SP/G                  HT/PER
                 (F)     (DEG/KT/KT) (MB)    (MI)  (FT/S)
CALUMET HARBOR    58     190/ 12/ 16 1006.4F
MICHIGAN CITY     59     180/ 12/ 14   N/A
BURNS HARBOR      59     210/ 13/ 19 1007.8F

$$
&&




USA.gov is the U.S. government's official web portal to all federal, state and local government web resources and services.